| time (UTC) | temp F | wind direction | speed MPH | gust MPH | rain 1hr in | rain 24hr in | rain mn in | humidity % | barometer mb |
| 20260901131309 | 77 | 127 | 5.0 | 9.0 | 0.00 | 0.55 | 0.36 | 93 | 1017.4 |
| 20260901130810 | 77 | 132 | 4.0 | 8.0 | 0.00 | 0.55 | 0.36 | 93 | 1017.5 |
| 20260901130303 | 77 | 70 | 4.0 | 8.0 | 0.00 | 0.55 | 0.36 | 93 | 1017.5 |
| 20260901125805 | 77 | 96 | 3.0 | 8.0 | 0.00 | 0.55 | 0.36 | 93 | 1017.4 |
| 20260901125308 | 77 | 113 | 3.0 | 5.0 | 0.00 | 0.55 | 0.36 | 93 | 1017.4 |
| 20260901124802 | 77 | 74 | 4.0 | 8.0 | 0.00 | 0.55 | 0.36 | 93 | 1017.3 |
| 20260901124303 | 77 | 65 | 4.0 | 9.0 | 0.00 | 0.55 | 0.36 | 93 | 1017.2 |
| 20260901123802 | 77 | 66 | 4.0 | 9.0 | 0.01 | 0.55 | 0.36 | 93 | 1017.0 |
| 20260901123258 | 77 | 113 | 5.0 | 11.0 | 0.03 | 0.55 | 0.36 | 93 | 1016.9 |
| 20260901122757 | 76 | 84 | 5.0 | 11.0 | 0.03 | 0.55 | 0.36 | 94 | 1016.7 |
| 20260901122258 | 76 | 98 | 4.0 | 9.0 | 0.03 | 0.55 | 0.36 | 93 | 1016.7 |
| 20260901122031 | 76 | 110 | 5.0 | 10.0 | 0.07 | 0.55 | 0.36 | 94 | 1016.7 |
| 20260901121257 | 76 | 96 | 5.0 | 10.0 | 0.07 | 0.55 | 0.36 | 93 | 1016.7 |
| 20260901121029 | 76 | 100 | 4.0 | 8.0 | 0.07 | 0.55 | 0.36 | 93 | 1016.5 |
| 20260901120254 | 76 | 90 | 4.0 | 9.0 | 0.07 | 0.55 | 0.36 | 93 | 1016.4 |
| 20260901120022 | 76 | 95 | 4.0 | 9.0 | 0.07 | 0.55 | 0.36 | 93 | 1016.4 |
| 20260901115253 | 76 | 89 | 4.0 | 8.0 | 0.07 | 0.55 | 0.36 | 94 | 1016.4 |
| 20260901114754 | 76 | 53 | 4.0 | 10.0 | 0.08 | 0.55 | 0.36 | 94 | 1016.4 |
| 20260901114251 | 76 | 80 | 4.0 | 10.0 | 0.08 | 0.55 | 0.36 | 94 | 1016.4 |
| 20260901113753 | 76 | 76 | 4.0 | 8.0 | 0.07 | 0.54 | 0.35 | 94 | 1016.3 |
| 20260901113247 | 76 | 126 | 3.0 | 8.0 | 0.06 | 0.52 | 0.33 | 94 | 1016.3 |
| 20260901112749 | 76 | 81 | 3.0 | 8.0 | 0.17 | 0.52 | 0.33 | 94 | 1016.3 |
| 20260901112519 | 76 | 124 | 3.0 | 8.0 | 0.18 | 0.52 | 0.33 | 93 | 1016.4 |
| 20260901111747 | 76 | 66 | 3.0 | 8.0 | 0.14 | 0.48 | 0.29 | 93 | 1016.5 |
| 20260901111245 | 76 | 69 | 2.0 | 5.0 | 0.14 | 0.48 | 0.29 | 93 | 1016.4 |
| 20260901110252 | 76 | 63 | 2.0 | 7.0 | 0.14 | 0.48 | 0.29 | 93 | 1016.2 |
| 20260901105741 | 76 | 107 | 3.0 | 7.0 | 0.26 | 0.48 | 0.29 | 93 | 1016.2 |
| 20260901105239 | 76 | 118 | 3.0 | 7.0 | 0.28 | 0.48 | 0.29 | 93 | 1016.2 |
| 20260901104740 | 76 | 105 | 3.0 | 10.0 | 0.28 | 0.47 | 0.28 | 93 | 1016.1 |
| 20260901104240 | 76 | 86 | 4.0 | 10.0 | 0.28 | 0.47 | 0.28 | 93 | 1016.1 |
| 20260901103738 | 76 | 116 | 6.0 | 13.0 | 0.28 | 0.47 | 0.28 | 92 | 1016.0 |
| 20260901103234 | 76 | 116 | 5.0 | 15.0 | 0.27 | 0.46 | 0.27 | 92 | 1016.1 |
| 20260901102735 | 77 | 133 | 4.0 | 15.0 | 0.16 | 0.35 | 0.16 | 92 | 1016.2 |
| 20260901102234 | 77 | 143 | 4.0 | 11.0 | 0.15 | 0.34 | 0.15 | 92 | 1016.3 |
| 20260901101735 | 77 | 148 | 3.0 | 12.0 | 0.15 | 0.34 | 0.15 | 92 | 1016.3 |
| 20260901101503 | 77 | 104 | 3.0 | 12.0 | 0.15 | 0.34 | 0.15 | 92 | 1016.2 |
| 20260901100734 | 77 | 113 | 6.0 | 15.0 | 0.15 | 0.34 | 0.15 | 92 | 1016.4 |
| 20260901100458 | 78 | 116 | 7.0 | 15.0 | 0.15 | 0.34 | 0.15 | 91 | 1016.5 |
| 20260901095728 | 78 | 111 | 4.0 | 12.0 | 0.03 | 0.22 | 0.03 | 91 | 1016.6 |
| 20260901095228 | 78 | 153 | 2.0 | 11.0 | 0.01 | 0.20 | 0.01 | 91 | 1016.6 |
| 20260901094735 | 78 | 109 | 1.0 | 4.0 | 0.00 | 0.19 | 0.00 | 92 | 1016.2 |
| 20260901094728 | 78 | 127 | 1.0 | 4.0 | 0.00 | 0.19 | 0.00 | 92 | 1016.3 |
| 20260901093726 | 78 | 105 | 2.0 | 4.0 | 0.00 | 0.19 | 0.00 | 91 | 1016.1 |
| 20260901093221 | 78 | 100 | 3.0 | 7.0 | 0.00 | 0.19 | 0.00 | 91 | 1016.0 |
| 20260901092718 | 78 | 74 | 4.0 | 7.0 | 0.00 | 0.19 | 0.00 | 91 | 1015.8 |
| 20260901092447 | 78 | 56 | 3.0 | 7.0 | 0.00 | 0.19 | 0.00 | 91 | 1015.6 |
| 20260901091946 | 78 | 76 | 3.0 | 6.0 | 0.00 | 0.19 | 0.00 | 91 | 1015.7 |
| 20260901091219 | 78 | 73 | 3.0 | 5.0 | 0.00 | 0.19 | 0.00 | 91 | 1015.9 |
| 20260901091214 | 78 | 77 | 3.0 | 6.0 | 0.00 | 0.19 | 0.00 | 91 | 1015.8 |
| 20260901090206 | 78 | 101 | 2.0 | 4.0 | 0.00 | 0.19 | 0.00 | 91 | 1016.1 |
| 20260901085706 | 78 | 112 | 2.0 | 4.0 | 0.00 | 0.19 | 0.00 | 91 | 1016.2 |
| 20260901085435 | 78 | 117 | 2.0 | 4.0 | 0.00 | 0.19 | 0.00 | 91 | 1016.3 |
| 20260901084704 | 78 | 103 | 3.0 | 7.0 | 0.00 | 0.19 | 0.00 | 90 | 1016.2 |
| 20260901084204 | 78 | 65 | 3.0 | 7.0 | 0.00 | 0.19 | 0.00 | 90 | 1016.1 |
| 20260901083700 | 79 | 92 | 3.0 | 9.0 | 0.00 | 0.19 | 0.00 | 90 | 1016.1 |
| 20260901083159 | 79 | 83 | 3.0 | 9.0 | 0.00 | 0.19 | 0.00 | 90 | 1016.1 |
| 20260901082700 | 79 | 77 | 3.0 | 7.0 | 0.00 | 0.19 | 0.00 | 90 | 1016.1 |
| 20260901082152 | 79 | 94 | 4.0 | 9.0 | 0.00 | 0.19 | 0.00 | 90 | 1016.1 |
| 20260901081652 | 79 | 77 | 4.0 | 9.0 | 0.00 | 0.19 | 0.00 | 90 | 1016.2 |
| 20260901081151 | 79 | 94 | 3.0 | 7.0 | 0.00 | 0.19 | 0.00 | 90 | 1016.2 |
| 20260901080650 | 79 | 115 | 2.0 | 6.0 | 0.00 | 0.19 | 0.00 | 90 | 1016.1 |
| 20260901080149 | 79 | 90 | 2.0 | 7.0 | 0.00 | 0.19 | 0.00 | 90 | 1015.9 |
| 20260901075650 | 79 | 97 | 3.0 | 7.0 | 0.00 | 0.19 | 0.00 | 89 | 1015.8 |
| 20260901075150 | 79 | 88 | 3.0 | 5.0 | 0.00 | 0.19 | 0.00 | 89 | 1015.8 |
| 20260901074646 | 79 | 67 | 3.0 | 7.0 | 0.00 | 0.19 | 0.00 | 89 | 1016.0 |
| 20260901074145 | 79 | 58 | 3.0 | 7.0 | 0.00 | 0.19 | 0.00 | 89 | 1016.0 |
| 20260901073646 | 79 | 107 | 3.0 | 7.0 | 0.00 | 0.19 | 0.00 | 88 | 1016.2 |
| 20260901073145 | 79 | 65 | 3.0 | 7.0 | 0.00 | 0.19 | 0.00 | 88 | 1016.2 |
| 20260901072645 | 79 | 116 | 3.0 | 6.0 | 0.00 | 0.19 | 0.00 | 88 | 1016.2 |
| 20260901072147 | 79 | 124 | 2.0 | 6.0 | 0.00 | 0.19 | 0.00 | 88 | 1016.3 |
| 20260901071642 | 79 | 120 | 2.0 | 6.0 | 0.00 | 0.19 | 0.00 | 88 | 1016.4 |
| 20260901071142 | 79 | 125 | 2.0 | 7.0 | 0.00 | 0.19 | 0.00 | 88 | 1016.5 |
| 20260901070642 | 79 | 115 | 3.0 | 7.0 | 0.00 | 0.19 | 0.00 | 87 | 1016.5 |
| 20260901070141 | 79 | 94 | 3.0 | 8.0 | 0.00 | 0.19 | 0.00 | 87 | 1016.6 |
| 20260901065642 | 80 | 94 | 4.0 | 8.0 | 0.00 | 0.19 | 0.00 | 87 | 1016.5 |
| 20260901065142 | 80 | 107 | 4.0 | 8.0 | 0.00 | 0.19 | 0.00 | 87 | 1016.6 |
| 20260901064640 | 80 | 104 | 4.0 | 8.0 | 0.00 | 0.19 | 0.00 | 87 | 1016.7 |
| 20260901064137 | 80 | 74 | 4.0 | 8.0 | 0.00 | 0.19 | 0.00 | 86 | 1016.6 |
| 20260901063636 | 80 | 106 | 3.0 | 8.0 | 0.00 | 0.19 | 0.00 | 86 | 1016.6 |
| 20260901063138 | 80 | 128 | 3.0 | 8.0 | 0.00 | 0.19 | 0.00 | 86 | 1016.6 |
| 20260901062638 | 80 | 98 | 4.0 | 10.0 | 0.00 | 0.19 | 0.00 | 86 | 1016.6 |
| 20260901062138 | 80 | 100 | 5.0 | 10.0 | 0.00 | 0.19 | 0.00 | 86 | 1016.7 |
| 20260901061638 | 80 | 89 | 4.0 | 11.0 | 0.00 | 0.19 | 0.00 | 86 | 1016.7 |
| 20260901061137 | 80 | 114 | 4.0 | 11.0 | 0.00 | 0.19 | 0.00 | 86 | 1016.8 |
| 20260901060907 | 80 | 117 | 5.0 | 11.0 | 0.00 | 0.19 | 0.00 | 86 | 1016.8 |
| 20260901060134 | 80 | 110 | 5.0 | 11.0 | 0.00 | 0.19 | 0.00 | 86 | 1016.7 |
| 20260901055632 | 80 | 104 | 4.0 | 11.0 | 0.00 | 0.19 | 0.00 | 86 | 1016.7 |
| 20260901055134 | 79 | 97 | 4.0 | 9.0 | 0.00 | 0.19 | 0.00 | 86 | 1016.7 |
| 20260901054632 | 79 | 116 | 4.0 | 9.0 | 0.00 | 0.19 | 0.00 | 86 | 1016.7 |
| 20260901054131 | 79 | 103 | 5.0 | 9.0 | 0.00 | 0.19 | 0.00 | 86 | 1016.6 |
| 20260901053858 | 79 | 98 | 4.0 | 9.0 | 0.00 | 0.19 | 0.00 | 87 | 1016.7 |
| 20260901053128 | 79 | 93 | 4.0 | 8.0 | 0.00 | 0.19 | 0.00 | 87 | 1016.8 |
| 20260901052626 | 79 | 111 | 4.0 | 8.0 | 0.00 | 0.19 | 0.00 | 87 | 1016.8 |
| 20260901052128 | 79 | 91 | 3.0 | 8.0 | 0.00 | 0.19 | 0.00 | 88 | 1016.8 |
| 20260901051625 | 78 | 117 | 2.0 | 6.0 | 0.00 | 0.19 | 0.00 | 88 | 1016.8 |
| 20260901051127 | 78 | 92 | 2.0 | 4.0 | 0.00 | 0.19 | 0.00 | 88 | 1016.9 |
| 20260901050620 | 78 | 85 | 2.0 | 6.0 | 0.00 | 0.19 | 0.00 | 88 | 1016.9 |
| 20260901050122 | 78 | 95 | 3.0 | 6.0 | 0.00 | 0.19 | 0.00 | 88 | 1016.9 |
| 20260901045620 | 78 | 76 | 3.0 | 4.0 | 0.00 | 0.19 | 0.19 | 87 | 1017.0 |
| 20260901045121 | 79 | 60 | 2.0 | 4.0 | 0.00 | 0.19 | 0.19 | 87 | 1017.0 |
| 20260901044851 | 79 | 71 | 2.0 | 4.0 | 0.00 | 0.19 | 0.19 | 87 | 1016.9 |
| 20260901044118 | 79 | 77 | 2.0 | 4.0 | 0.00 | 0.19 | 0.19 | 87 | 1016.9 |
| 20260901043614 | 79 | 86 | 2.0 | 4.0 | 0.00 | 0.19 | 0.19 | 87 | 1017.0 |
| 20260901043115 | 79 | 91 | 2.0 | 4.0 | 0.00 | 0.19 | 0.19 | 86 | 1016.9 |
| 20260901042619 | 79 | 119 | 2.0 | 4.0 | 0.00 | 0.19 | 0.19 | 86 | 1016.9 |
| 20260901042613 | 79 | 99 | 2.0 | 4.0 | 0.00 | 0.19 | 0.19 | 86 | 1016.9 |
| 20260901041613 | 79 | 126 | 2.0 | 3.0 | 0.00 | 0.19 | 0.19 | 86 | 1016.9 |
| 20260901041113 | 79 | 94 | 2.0 | 3.0 | 0.00 | 0.19 | 0.19 | 86 | 1016.9 |
| 20260901040610 | 79 | 88 | 2.0 | 3.0 | 0.00 | 0.19 | 0.19 | 86 | 1016.8 |
| 20260901040110 | 79 | 84 | 2.0 | 5.0 | 0.00 | 0.19 | 0.19 | 85 | 1016.8 |
| 20260901035611 | 80 | 92 | 2.0 | 5.0 | 0.00 | 0.19 | 0.19 | 85 | 1016.8 |
| 20260901035109 | 80 | 103 | 2.0 | 4.0 | 0.00 | 0.19 | 0.19 | 85 | 1016.7 |
| 20260901034607 | 80 | 92 | 2.0 | 6.0 | 0.00 | 0.19 | 0.19 | 85 | 1016.8 |
| 20260901034107 | 80 | 121 | 2.0 | 6.0 | 0.00 | 0.19 | 0.19 | 85 | 1016.9 |
| 20260901033603 | 80 | 105 | 2.0 | 6.0 | 0.00 | 0.19 | 0.19 | 85 | 1017.0 |
| 20260901033104 | 80 | 117 | 2.0 | 6.0 | 0.00 | 0.19 | 0.19 | 85 | 1017.0 |
| 20260901032605 | 80 | 84 | 2.0 | 6.0 | 0.00 | 0.19 | 0.19 | 85 | 1017.0 |
| 20260901032105 | 80 | 93 | 2.0 | 6.0 | 0.00 | 0.19 | 0.19 | 85 | 1017.0 |
| 20260901031604 | 80 | 107 | 2.0 | 5.0 | 0.00 | 0.19 | 0.19 | 85 | 1016.8 |
| 20260901031100 | 80 | 112 | 2.0 | 4.0 | 0.00 | 0.19 | 0.19 | 85 | 1016.9 |
| 20260901030827 | 80 | 123 | 2.0 | 4.0 | 0.00 | 0.19 | 0.19 | 85 | 1016.8 |
| 20260901030055 | 80 | 111 | 2.0 | 4.0 | 0.00 | 0.19 | 0.19 | 85 | 1016.8 |
| 20260901025557 | 80 | 129 | 2.0 | 3.0 | 0.00 | 0.19 | 0.19 | 85 | 1016.6 |
| 20260901025057 | 80 | 115 | 2.0 | 3.0 | 0.00 | 0.19 | 0.19 | 84 | 1016.6 |
| 20260901024558 | 80 | 120 | 1.0 | 3.0 | 0.00 | 0.19 | 0.19 | 84 | 1016.6 |
| 20260901024054 | 80 | 79 | 1.0 | 3.0 | 0.00 | 0.19 | 0.19 | 84 | 1016.5 |
| 20260901023551 | 80 | 85 | 2.0 | 4.0 | 0.00 | 0.19 | 0.19 | 84 | 1016.5 |
| 20260901023322 | 81 | 105 | 3.0 | 7.0 | 0.00 | 0.19 | 0.19 | 83 | 1016.5 |
| 20260901022551 | 81 | 106 | 2.0 | 7.0 | 0.00 | 0.19 | 0.19 | 83 | 1016.5 |
| 20260901022051 | 81 | 59 | 2.0 | 5.0 | 0.00 | 0.19 | 0.19 | 83 | 1016.4 |
| 20260901021548 | 81 | 89 | 2.0 | 5.0 | 0.00 | 0.19 | 0.19 | 83 | 1016.4 |
| 20260901021050 | 81 | 72 | 2.0 | 6.0 | 0.00 | 0.19 | 0.19 | 82 | 1016.3 |
| 20260901020544 | 81 | 105 | 2.0 | 6.0 | 0.00 | 0.19 | 0.19 | 82 | 1016.4 |
| 20260901020045 | 81 | 104 | 1.0 | 3.0 | 0.00 | 0.19 | 0.19 | 82 | 1016.3 |
| 20260901015543 | 81 | 85 | 2.0 | 4.0 | 0.00 | 0.19 | 0.19 | 82 | 1016.3 |
| 20260901015045 | 81 | 108 | 2.0 | 4.0 | 0.00 | 0.19 | 0.19 | 81 | 1016.2 |
| 20260901014543 | 81 | 88 | 2.0 | 4.0 | 0.00 | 0.19 | 0.19 | 81 | 1016.0 |
| 20260901014043 | 81 | 101 | 2.0 | 5.0 | 0.00 | 0.19 | 0.19 | 80 | 1015.9 |
| 20260901013537 | 81 | 82 | 2.0 | 5.0 | 0.00 | 0.19 | 0.19 | 80 | 1015.9 |
| 20260901013305 | 82 | 72 | 3.0 | 7.0 | 0.00 | 0.19 | 0.19 | 79 | 1015.8 |
| 20260901012811 | 82 | 76 | 2.0 | 4.0 | 0.00 | 0.19 | 0.19 | 79 | 1015.9 |
| 20260901012532 | 82 | 79 | 2.0 | 7.0 | 0.00 | 0.19 | 0.19 | 79 | 1015.9 |
| 20260901011802 | 82 | 72 | 2.0 | 6.0 | 0.00 | 0.19 | 0.19 | 79 | 1015.8 |
| 20260901011026 | 83 | 98 | 2.0 | 6.0 | 0.00 | 0.19 | 0.19 | 79 | 1015.8 |
| 20260901010527 | 83 | 102 | 2.0 | 6.0 | 0.00 | 0.19 | 0.19 | 78 | 1015.8 |
| 20260901010027 | 83 | 108 | 3.0 | 6.0 | 0.00 | 0.19 | 0.19 | 78 | 1015.9 |
| 20260901005524 | 83 | 90 | 2.0 | 6.0 | 0.00 | 0.19 | 0.19 | 78 | 1015.9 |
| 20260901005023 | 83 | 90 | 1.0 | 4.0 | 0.00 | 0.19 | 0.19 | 78 | 1015.9 |
| 20260901004522 | 83 | 76 | 2.0 | 6.0 | 0.00 | 0.19 | 0.19 | 78 | 1016.0 |
| 20260901004022 | 83 | 89 | 2.0 | 6.0 | 0.00 | 0.19 | 0.19 | 77 | 1016.0 |
| 20260901003753 | 84 | 84 | 3.0 | 9.0 | 0.00 | 0.19 | 0.19 | 77 | 1016.0 |
| 20260901003019 | 84 | 46 | 3.0 | 9.0 | 0.00 | 0.19 | 0.19 | 76 | 1016.0 |
| 20260901002521 | 84 | 75 | 3.0 | 7.0 | 0.00 | 0.19 | 0.19 | 76 | 1016.0 |
| 20260901002018 | 84 | 118 | 3.0 | 7.0 | 0.00 | 0.19 | 0.19 | 77 | 1015.9 |
| 20260901001517 | 84 | 93 | 2.0 | 7.0 | 0.00 | 0.19 | 0.19 | 76 | 1016.0 |
| 20260901001018 | 85 | 86 | 3.0 | 6.0 | 0.00 | 0.19 | 0.19 | 77 | 1016.0 |
| 20260901000512 | 85 | 78 | 3.0 | 8.0 | 0.00 | 0.19 | 0.19 | 76 | 1016.0 |
| 20260901000015 | 85 | 82 | 3.0 | 9.0 | 0.00 | 0.19 | 0.19 | 76 | 1015.9 |
| 20260831235514 | 85 | 96 | 4.0 | 9.0 | 0.00 | 0.19 | 0.19 | 76 | 1015.9 |
| 20260831235013 | 85 | 132 | 4.0 | 9.0 | 0.00 | 0.19 | 0.19 | 75 | 1015.9 |
| 20260831234514 | 85 | 82 | 4.0 | 9.0 | 0.00 | 0.19 | 0.19 | 75 | 1016.0 |
| 20260831234014 | 85 | 100 | 4.0 | 8.0 | 0.00 | 0.19 | 0.19 | 75 | 1016.1 |
| 20260831233740 | 85 | 92 | 4.0 | 10.0 | 0.00 | 0.19 | 0.19 | 74 | 1016.1 |
| 20260831233010 | 86 | 111 | 5.0 | 10.0 | 0.00 | 0.20 | 0.19 | 74 | 1016.1 |
| 20260831232740 | 85 | 99 | 5.0 | 10.0 | 0.00 | 0.22 | 0.19 | 75 | 1016.1 |
| 20260831232009 | 86 | 110 | 4.0 | 10.0 | 0.00 | 0.32 | 0.19 | 75 | 1016.1 |
| 20260831231741 | 86 | 102 | 4.0 | 7.0 | 0.00 | 0.47 | 0.19 | 76 | 1016.1 |
| 20260831231010 | 86 | 118 | 4.0 | 7.0 | 0.00 | 0.47 | 0.19 | 76 | 1016.2 |
| 20260831230745 | 86 | 111 | 4.0 | 7.0 | 0.00 | 0.47 | 0.19 | 77 | 1016.1 |
| 20260831230505 | 86 | 135 | 3.0 | 7.0 | 0.00 | 0.47 | 0.19 | 77 | 1016.2 |
| 20260831225739 | 86 | 98 | 5.0 | 9.0 | 0.00 | 0.47 | 0.19 | 77 | 1016.2 |
| 20260831225231 | 86 | 130 | 5.0 | 9.0 | 0.00 | 0.47 | 0.19 | 76 | 1016.3 |
| 20260831224504 | 86 | 128 | 2.0 | 7.0 | 0.00 | 0.47 | 0.19 | 76 | 1016.5 |
| 20260831224459 | 86 | 136 | 3.0 | 8.0 | 0.00 | 0.47 | 0.19 | 76 | 1016.4 |
| 20260831223500 | 86 | 171 | 3.0 | 7.0 | 0.00 | 0.47 | 0.19 | 76 | 1016.3 |
| 20260831223000 | 86 | 130 | 3.0 | 7.0 | 0.00 | 0.47 | 0.19 | 76 | 1016.3 |
| 20260831222730 | 86 | 145 | 4.0 | 9.0 | 0.00 | 0.47 | 0.19 | 75 | 1016.3 |
| 20260831221956 | 86 | 138 | 5.0 | 10.0 | 0.00 | 0.47 | 0.19 | 74 | 1016.3 |
| 20260831221456 | 87 | 131 | 7.0 | 15.0 | 0.00 | 0.47 | 0.19 | 73 | 1016.4 |
| 20260831220956 | 89 | 128 | 7.0 | 15.0 | 0.00 | 0.47 | 0.19 | 70 | 1016.4 |
| 20260831220456 | 90 | 71 | 6.0 | 12.0 | 0.00 | 0.47 | 0.19 | 67 | 1016.3 |
| 20260831215954 | 90 | 125 | 5.0 | 11.0 | 0.00 | 0.47 | 0.19 | 66 | 1016.2 |
| 20260831215724 | 90 | 79 | 5.0 | 11.0 | 0.00 | 0.47 | 0.19 | 67 | 1016.2 |
| 20260831214950 | 89 | 79 | 7.0 | 13.0 | 0.00 | 0.47 | 0.19 | 69 | 1016.1 |
| 20260831214450 | 88 | 90 | 4.0 | 13.0 | 0.00 | 0.47 | 0.19 | 69 | 1016.1 |
| 20260831213948 | 87 | 93 | 1.0 | 8.0 | 0.00 | 0.47 | 0.19 | 77 | 1016.1 |
| 20260831213444 | 87 | 82 | 1.0 | 4.0 | 0.00 | 0.47 | 0.19 | 76 | 1016.1 |
| 20260831212943 | 87 | 346 | 1.0 | 4.0 | 0.00 | 0.47 | 0.19 | 77 | 1016.0 |
| 20260831212715 | 87 | 161 | 0.0 | 3.0 | 0.00 | 0.47 | 0.19 | 77 | 1016.1 |
| 20260831211941 | 87 | 29 | 1.0 | 8.0 | 0.00 | 0.47 | 0.19 | 77 | 1016.1 |
| 20260831211713 | 87 | 336 | 1.0 | 8.0 | 0.00 | 0.47 | 0.19 | 78 | 1016.1 |
| 20260831210941 | 86 | 77 | 1.0 | 2.0 | 0.00 | 0.47 | 0.19 | 76 | 1016.3 |
| 20260831210441 | 86 | 77 | 1.0 | 3.0 | 0.00 | 0.47 | 0.19 | 75 | 1016.4 |
| 20260831205942 | 86 | 49 | 0.0 | 3.0 | 0.00 | 0.47 | 0.19 | 76 | 1016.5 |
| 20260831205442 | 85 | 49 | 0.0 | 2.0 | 0.00 | 0.47 | 0.19 | 77 | 1016.7 |
| 20260831204943 | 85 | 142 | 1.0 | 2.0 | 0.00 | 0.47 | 0.19 | 77 | 1016.8 |
| 20260831204708 | 85 | 64 | 1.0 | 3.0 | 0.00 | 0.47 | 0.19 | 77 | 1016.9 |
| 20260831203938 | 84 | 54 | 1.0 | 3.0 | 0.00 | 0.47 | 0.19 | 76 | 1016.9 |
| 20260831203438 | 84 | 130 | 2.0 | 6.0 | 0.00 | 0.47 | 0.19 | 76 | 1017.0 |
| 20260831202938 | 84 | 59 | 2.0 | 6.0 | 0.00 | 0.47 | 0.19 | 78 | 1017.0 |
| 20260831202436 | 83 | 102 | 1.0 | 3.0 | 0.00 | 0.47 | 0.19 | 79 | 1017.0 |
| 20260831202207 | 83 | 98 | 1.0 | 2.0 | 0.00 | 0.47 | 0.19 | 81 | 1016.9 |
| 20260831201429 | 82 | 165 | 0.0 | 2.0 | 0.00 | 0.47 | 0.19 | 82 | 1017.0 |
| 20260831201158 | 82 | 5 | 0.0 | 2.0 | 0.00 | 0.47 | 0.19 | 84 | 1016.9 |
| 20260831200426 | 82 | 5 | 0.0 | 2.0 | 0.00 | 0.47 | 0.19 | 85 | 1016.9 |
| 20260831195924 | 81 | 5 | 0.0 | 2.0 | 0.00 | 0.47 | 0.19 | 84 | 1017.0 |
| 20260831195423 | 81 | 5 | 1.0 | 8.0 | 0.00 | 0.47 | 0.19 | 86 | 1017.1 |
| 20260831194920 | 81 | 5 | 2.0 | 8.0 | 0.00 | 0.47 | 0.19 | 84 | 1017.1 |
| 20260831194419 | 81 | 94 | 3.0 | 8.0 | 0.00 | 0.47 | 0.19 | 83 | 1017.3 |
| 20260831194150 | 81 | 74 | 5.0 | 13.0 | 0.00 | 0.47 | 0.19 | 81 | 1017.4 |
| 20260831193651 | 81 | 113 | 5.0 | 13.0 | 0.00 | 0.47 | 0.19 | 80 | 1017.3 |
| 20260831192917 | 82 | 111 | 6.0 | 17.0 | 0.00 | 0.47 | 0.19 | 78 | 1017.3 |
| 20260831192418 | 84 | 157 | 8.0 | 24.0 | 0.01 | 0.47 | 0.19 | 76 | 1017.2 |
| 20260831191915 | 86 | 101 | 4.0 | 24.0 | 0.17 | 0.47 | 0.19 | 73 | 1017.3 |
| 20260831191414 | 87 | 80 | 1.0 | 3.0 | 0.19 | 0.47 | 0.19 | 77 | 1017.0 |
| 20260831190915 | 86 | 66 | 1.0 | 4.0 | 0.19 | 0.47 | 0.19 | 80 | 1017.3 |
| 20260831190414 | 85 | 71 | 2.0 | 4.0 | 0.19 | 0.47 | 0.19 | 79 | 1017.3 |
| 20260831185911 | 85 | 22 | 2.0 | 4.0 | 0.19 | 0.47 | 0.19 | 83 | 1017.3 |
| 20260831185413 | 84 | 12 | 1.0 | 4.0 | 0.19 | 0.47 | 0.19 | 87 | 1017.3 |
| 20260831184909 | 83 | 81 | 0.0 | 4.0 | 0.19 | 0.47 | 0.19 | 87 | 1017.3 |
| 20260831184409 | 83 | 72 | 0.0 | 2.0 | 0.19 | 0.47 | 0.19 | 87 | 1017.4 |
| 20260831183910 | 83 | 72 | 0.0 | 2.0 | 0.19 | 0.47 | 0.19 | 88 | 1017.4 |
| 20260831183408 | 83 | 71 | 0.0 | 11.0 | 0.19 | 0.47 | 0.19 | 86 | 1017.5 |
| 20260831182905 | 84 | 134 | 2.0 | 11.0 | 0.19 | 0.47 | 0.19 | 82 | 1017.5 |
| 20260831182405 | 86 | 163 | 6.0 | 12.0 | 0.15 | 0.43 | 0.18 | 79 | 1017.6 |
| 20260831181900 | 88 | 103 | 6.0 | 12.0 | 0.02 | 0.30 | 0.04 | 75 | 1017.7 |
| 20260831181357 | 88 | 23 | 5.0 | 12.0 | 0.00 | 0.28 | 0.00 | 72 | 1017.4 |
| 20260831180856 | 87 | 355 | 3.0 | 11.0 | 0.00 | 0.28 | 0.00 | 72 | 1017.4 |
| 20260831180354 | 87 | 11 | 2.0 | 9.0 | 0.00 | 0.28 | 0.00 | 73 | 1017.6 |
| 20260831175853 | 89 | 78 | 2.0 | 9.0 | 0.00 | 0.28 | 0.00 | 70 | 1017.6 |
| 20260831175352 | 89 | 355 | 2.0 | 11.0 | 0.00 | 0.28 | 0.00 | 71 | 1017.6 |
| 20260831174849 | 89 | 57 | 3.0 | 11.0 | 0.00 | 0.28 | 0.00 | 71 | 1017.6 |
| 20260831174622 | 89 | 76 | 4.0 | 11.0 | 0.00 | 0.28 | 0.00 | 70 | 1017.7 |
| 20260831173849 | 88 | 75 | 4.0 | 11.0 | 0.00 | 0.28 | 0.00 | 72 | 1017.8 |
| 20260831173348 | 87 | 96 | 3.0 | 10.0 | 0.00 | 0.28 | 0.00 | 72 | 1017.9 |
| 20260831172847 | 87 | 54 | 3.0 | 8.0 | 0.00 | 0.28 | 0.00 | 72 | 1018.0 |
| 20260831172346 | 88 | 71 | 3.0 | 8.0 | 0.00 | 0.28 | 0.00 | 71 | 1017.9 |
| 20260831171845 | 88 | 84 | 4.0 | 9.0 | 0.00 | 0.28 | 0.00 | 70 | 1018.0 |
| 20260831171616 | 89 | 75 | 4.0 | 9.0 | 0.00 | 0.28 | 0.00 | 70 | 1018.0 |
| 20260831171117 | 89 | 19 | 4.0 | 8.0 | 0.00 | 0.28 | 0.00 | 70 | 1018.0 |
| 20260831170344 | 89 | 355 | 5.0 | 8.0 | 0.00 | 0.28 | 0.00 | 71 | 1018.1 |
| 20260831165845 | 88 | 98 | 4.0 | 9.0 | 0.00 | 0.28 | 0.00 | 73 | 1018.1 |
| 20260831165347 | 87 | 67 | 5.0 | 9.0 | 0.00 | 0.28 | 0.00 | 72 | 1018.1 |
| 20260831164843 | 87 | 98 | 5.0 | 9.0 | 0.00 | 0.28 | 0.00 | 72 | 1018.2 |
| 20260831164344 | 87 | 74 | 5.0 | 11.0 | 0.00 | 0.28 | 0.00 | 73 | 1018.1 |
| 20260831164114 | 88 | 49 | 5.0 | 11.0 | 0.00 | 0.28 | 0.00 | 71 | 1018.2 |
| 20260831163342 | 88 | 128 | 6.0 | 12.0 | 0.00 | 0.28 | 0.00 | 73 | 1018.2 |
| 20260831162842 | 88 | 66 | 5.0 | 12.0 | 0.00 | 0.28 | 0.00 | 71 | 1018.2 |
| 20260831162343 | 87 | 89 | 5.0 | 11.0 | 0.00 | 0.28 | 0.00 | 73 | 1018.3 |
| 20260831161838 | 87 | 74 | 5.0 | 11.0 | 0.00 | 0.28 | 0.00 | 72 | 1018.3 |
| 20260831161340 | 87 | 67 | 4.0 | 9.0 | 0.00 | 0.28 | 0.00 | 74 | 1018.2 |
| 20260831161111 | 87 | 71 | 4.0 | 12.0 | 0.00 | 0.28 | 0.00 | 73 | 1018.3 |
| 20260831160338 | 87 | 71 | 4.0 | 12.0 | 0.00 | 0.28 | 0.00 | 75 | 1018.5 |
| 20260831155839 | 87 | 88 | 4.0 | 9.0 | 0.00 | 0.28 | 0.00 | 74 | 1018.4 |
| 20260831155339 | 87 | 49 | 6.0 | 12.0 | 0.00 | 0.28 | 0.00 | 75 | 1018.4 |
| 20260831154834 | 87 | 92 | 6.0 | 12.0 | 0.00 | 0.28 | 0.00 | 73 | 1018.4 |
| 20260831154336 | 86 | 114 | 5.0 | 11.0 | 0.00 | 0.28 | 0.00 | 77 | 1018.4 |
| 20260831153835 | 86 | 91 | 5.0 | 10.0 | 0.00 | 0.28 | 0.00 | 78 | 1018.5 |
| 20260831153334 | 85 | 66 | 4.0 | 10.0 | 0.00 | 0.28 | 0.00 | 78 | 1018.5 |
| 20260831152849 | 85 | 98 | 3.0 | 9.0 | 0.00 | 0.28 | 0.00 | 78 | 1018.6 |
| 20260831152335 | 85 | 64 | 4.0 | 12.0 | 0.00 | 0.28 | 0.00 | 78 | 1018.6 |
| 20260831151830 | 85 | 57 | 4.0 | 12.0 | 0.00 | 0.28 | 0.00 | 79 | 1018.6 |
| 20260831151600 | 85 | 67 | 3.0 | 9.0 | 0.00 | 0.28 | 0.00 | 80 | 1018.7 |
| 20260831150830 | 85 | 74 | 4.0 | 9.0 | 0.00 | 0.28 | 0.00 | 79 | 1018.7 |
| 20260831150330 | 85 | 86 | 5.0 | 9.0 | 0.00 | 0.28 | 0.00 | 80 | 1018.6 |
| 20260831145826 | 84 | 98 | 4.0 | 9.0 | 0.00 | 0.28 | 0.00 | 82 | 1018.7 |
| 20260831145326 | 84 | 76 | 4.0 | 11.0 | 0.00 | 0.28 | 0.00 | 83 | 1018.6 |
| 20260831144824 | 84 | 142 | 4.0 | 11.0 | 0.00 | 0.28 | 0.00 | 82 | 1018.6 |
| 20260831144324 | 84 | 80 | 3.0 | 10.0 | 0.00 | 0.28 | 0.00 | 83 | 1018.6 |
| 20260831144054 | 83 | 56 | 3.0 | 9.0 | 0.00 | 0.28 | 0.00 | 84 | 1018.5 |
| 20260831143323 | 83 | 25 | 4.0 | 9.0 | 0.00 | 0.28 | 0.00 | 84 | 1018.5 |
| 20260831143049 | 83 | 60 | 3.0 | 8.0 | 0.00 | 0.28 | 0.00 | 84 | 1018.5 |
| 20260831142317 | 83 | 65 | 3.0 | 7.0 | 0.00 | 0.28 | 0.00 | 85 | 1018.4 |
| 20260831141818 | 83 | 83 | 3.0 | 7.0 | 0.00 | 0.28 | 0.00 | 85 | 1018.3 |
| 20260831141317 | 82 | 76 | 3.0 | 6.0 | 0.00 | 0.28 | 0.00 | 86 | 1018.3 |
| 20260831141049 | 82 | 61 | 2.0 | 6.0 | 0.00 | 0.28 | 0.00 | 87 | 1018.3 |
| 20260831140316 | 82 | 87 | 2.0 | 4.0 | 0.00 | 0.28 | 0.00 | 87 | 1018.3 |
| 20260831135810 | 81 | 88 | 3.0 | 7.0 | 0.00 | 0.28 | 0.00 | 88 | 1018.3 |
| 20260831135307 | 81 | 94 | 4.0 | 7.0 | 0.00 | 0.28 | 0.00 | 88 | 1018.2 |
| 20260831134807 | 80 | 71 | 3.0 | 8.0 | 0.00 | 0.28 | 0.00 | 88 | 1018.3 |
| 20260831134541 | 80 | 98 | 2.0 | 7.0 | 0.00 | 0.28 | 0.00 | 89 | 1018.1 |
| 20260831134305 | 80 | 76 | 3.0 | 8.0 | 0.00 | 0.28 | 0.00 | 88 | 1018.1 |
| 20260831133533 | 79 | 82 | 3.0 | 7.0 | 0.00 | 0.28 | 0.00 | 89 | 1018.0 |
| 20260831132802 | 79 | 63 | 3.0 | 8.0 | 0.00 | 0.28 | 0.00 | 90 | 1017.9 |
| 20260831132302 | 79 | 71 | 4.0 | 8.0 | 0.00 | 0.28 | 0.00 | 90 | 1017.9 |